When you browse on this site, cookies collect data to enhance your experience and personalize the content and advertising you see.
Visit our Privacy Policy to learn more. By continuing to use the site, you agree to this use of cookies and data.
  • In Hungary
  • List of Countries
  • For 7 days
  • Water Temperature
  • Satellite Maps
  • Weather Map
  • News
  • Weather Widgets
  • user-avatar
    Login

    Hourly Weather Ituni

    Today, 18 January, Friday

    Time Temperature Precipitation Wind Pressure Humidity
    00:00 +22°C° 0 mm 0 mps 754 mmHg 99%
    01:00 +22°C° 0 mm 0 mps 754 mmHg 99%
    02:00 +22°C° 0 mm 0 mps 754 mmHg 99%
    03:00 +22°C° 0.1 mm 0 mps 754 mmHg 98%
    04:00 +22°C° 0.1 mm 0 mps 754 mmHg 98%
    05:00 +22°C° 0.1 mm 0 mps 754 mmHg 98%
    06:00 +23°C° 0.1 mm 0 mps 754 mmHg 96%
    07:00 +23°C° 0.1 mm 0 mps 754 mmHg 94%
    08:00 +26°C° 0.1 mm 1 mps 754 mmHg 93%
    09:00 +28°C° 0.1 mm 1 mps 754 mmHg 81%
    10:00 +30°C° 0.1 mm 1 mps 754 mmHg 70%
    11:00 +32°C° 0.1 mm 2 mps 754 mmHg 59%
    12:00 +32°C° 0.6 mm 2 mps 754 mmHg 64%
    13:00 +31°C° 0.6 mm 2 mps 753 mmHg 69%
    14:00 +31°C° 0.6 mm 2 mps 752 mmHg 75%
    15:00 +30°C° 0.8 mm 2 mps 752 mmHg 80%
    16:00 +29°C° 0.8 mm 2 mps 751 mmHg 85%
    17:00 +28°C° 0.8 mm 1 mps 751 mmHg 90%
    18:00 +27°C° 0.1 mm 1 mps 752 mmHg 92%
    19:00 +26°C° 0.1 mm 1 mps 752 mmHg 94%
    20:00 +25°C° 0.1 mm 1 mps 753 mmHg 96%
    21:00 +25°C° 0 mm 1 mps 753 mmHg 97%
    22:00 +24°C° 0 mm 1 mps 754 mmHg 98%
    23:00 +22°C° 0 mm 0 mps 754 mmHg 98%

    Tomorrow, 19 January, Saturday

    Time Temperature Precipitation Wind Pressure Humidity
    00:00 +22°C° 0.1 mm 0 mps 754 mmHg 98%
    01:00 +22°C° 0.1 mm 0 mps 753 mmHg 98%
    02:00 +24°C° 0.1 mm 1 mps 753 mmHg 98%
    03:00 +24°C° 0.2 mm 1 mps 753 mmHg 98%
    04:00 +24°C° 0.2 mm 1 mps 753 mmHg 98%
    05:00 +24°C° 0.2 mm 1 mps 753 mmHg 98%
    06:00 +25°C° 0.2 mm 1 mps 754 mmHg 97%
    07:00 +25°C° 0.2 mm 1 mps 754 mmHg 95%
    08:00 +26°C° 0.2 mm 1 mps 755 mmHg 93%
    09:00 +27°C° 0.8 mm 1 mps 755 mmHg 88%
    10:00 +28°C° 0.8 mm 1 mps 755 mmHg 84%
    11:00 +30°C° 0.8 mm 1 mps 755 mmHg 79%
    12:00 +30°C° 1.2 mm 1 mps 754 mmHg 77%
    13:00 +31°C° 1.2 mm 1 mps 753 mmHg 74%
    14:00 +32°C° 1.2 mm 1 mps 751 mmHg 71%
    15:00 +31°C° 1 mm 1 mps 751 mmHg 75%
    16:00 +30°C° 1 mm 1 mps 751 mmHg 79%
    17:00 +29°C° 1 mm 1 mps 751 mmHg 83%
    18:00 +28°C° 0.1 mm 1 mps 751 mmHg 86%
    19:00 +26°C° 0.1 mm 1 mps 752 mmHg 90%
    20:00 +25°C° 0.1 mm 1 mps 753 mmHg 93%
    21:00 +25°C° 0 mm 1 mps 753 mmHg 94%
    22:00 +25°C° 0 mm 1 mps 754 mmHg 96%
    23:00 +22°C° 0 mm 0 mps 754 mmHg 98%

    Day after tomorrow, 20 January, Sunday

    Time Temperature Precipitation Wind Pressure Humidity
    00:00 +22°C° 0.1 mm 0 mps 754 mmHg 97%
    01:00 +22°C° 0.1 mm 0 mps 753 mmHg 97%
    02:00 +22°C° 0.1 mm 0 mps 753 mmHg 97%
    03:00 +22°C° 0.1 mm 0 mps 753 mmHg 97%
    04:00 +24°C° 0.1 mm 1 mps 753 mmHg 96%
    05:00 +24°C° 0.1 mm 1 mps 753 mmHg 96%
    06:00 +25°C° 0.1 mm 1 mps 753 mmHg 95%
    07:00 +25°C° 0.1 mm 1 mps 754 mmHg 93%
    08:00 +24°C° 0.1 mm 0 mps 755 mmHg 92%
    09:00 +27°C° 0.1 mm 1 mps 755 mmHg 85%
    10:00 +28°C° 0.1 mm 1 mps 755 mmHg 79%
    11:00 +30°C° 0.1 mm 1 mps 755 mmHg 72%
    12:00 +31°C° 0 mm 2 mps 754 mmHg 66%
    13:00 +32°C° 0 mm 2 mps 753 mmHg 59%
    14:00 +34°C° 0 mm 3 mps 752 mmHg 52%
    15:00 +32°C° 0 mm 2 mps 752 mmHg 58%
    16:00 +31°C° 0 mm 2 mps 752 mmHg 63%
    17:00 +30°C° 0 mm 2 mps 751 mmHg 69%
    18:00 +28°C° 0 mm 2 mps 752 mmHg 75%
    19:00 +27°C° 0 mm 2 mps 753 mmHg 80%
    20:00 +25°C° 0 mm 1 mps 753 mmHg 86%
    21:00 +25°C° 0 mm 1 mps 754 mmHg 90%
    22:00 +24°C° 0 mm 1 mps 754 mmHg 93%
    23:00 +24°C° 0 mm 1 mps 754 mmHg 96%

    21 January, Monday

    Time Temperature Precipitation Wind Pressure Humidity
    00:00 +22°C° 0 mm 0 mps 754 mmHg 97%
    01:00 +21°C° 0 mm 0 mps 753 mmHg 98%
    02:00 +21°C° 0 mm 0 mps 753 mmHg 99%
    03:00 +21°C° 0 mm 0 mps 753 mmHg 99%
    04:00 +21°C° 0 mm 0 mps 753 mmHg 99%
    05:00 +21°C° 0 mm 0 mps 753 mmHg 99%
    06:00 +22°C° 0.1 mm 0 mps 754 mmHg 94%
    07:00 +24°C° 0.1 mm 0 mps 755 mmHg 90%
    08:00 +25°C° 0.1 mm 0 mps 755 mmHg 86%
    09:00 +28°C° 0.1 mm 1 mps 755 mmHg 77%
    10:00 +30°C° 0.1 mm 1 mps 755 mmHg 69%
    11:00 +31°C° 0.1 mm 2 mps 755 mmHg 61%
    12:00 +32°C° 0.1 mm 2 mps 754 mmHg 58%
    13:00 +34°C° 0.1 mm 2 mps 754 mmHg 54%
    14:00 +34°C° 0.1 mm 2 mps 753 mmHg 51%
    15:00 +34°C° 0 mm 2 mps 752 mmHg 55%
    16:00 +32°C° 0 mm 2 mps 752 mmHg 58%
    17:00 +31°C° 0 mm 1 mps 752 mmHg 61%
    18:00 +29°C° 0 mm 2 mps 753 mmHg 67%
    19:00 +28°C° 0 mm 2 mps 753 mmHg 73%
    20:00 +26°C° 0 mm 2 mps 754 mmHg 79%
    21:00 +25°C° 0 mm 1 mps 754 mmHg 84%
    22:00 +24°C° 0 mm 1 mps 754 mmHg 89%
    23:00 +24°C° 0 mm 1 mps 755 mmHg 94%

    22 January, Tuesday

    Time Temperature Precipitation Wind Pressure Humidity
    00:00 +24°C° 0 mm 1 mps 755 mmHg 96%
    01:00 +23°C° 0 mm 1 mps 754 mmHg 97%
    02:00 +23°C° 0 mm 1 mps 754 mmHg 98%
    03:00 +23°C° 0 mm 1 mps 754 mmHg 99%
    04:00 +21°C° 0 mm 0 mps 754 mmHg 99%
    05:00 +21°C° 0 mm 0 mps 754 mmHg 99%
    06:00 +22°C° 0.1 mm 0 mps 755 mmHg 95%
    07:00 +23°C° 0.1 mm 0 mps 755 mmHg 91%
    08:00 +24°C° 0.1 mm 0 mps 756 mmHg 87%
    09:00 +28°C° 0.3 mm 1 mps 756 mmHg 80%
    10:00 +29°C° 0.3 mm 1 mps 756 mmHg 73%
    11:00 +31°C° 0.3 mm 2 mps 755 mmHg 67%
    12:00 +31°C° 0.3 mm 2 mps 754 mmHg 64%
    13:00 +32°C° 0.3 mm 2 mps 753 mmHg 61%
    14:00 +32°C° 0.3 mm 2 mps 753 mmHg 58%
    15:00 +32°C° 0.1 mm 2 mps 752 mmHg 59%
    16:00 +31°C° 0.1 mm 2 mps 752 mmHg 60%
    17:00 +31°C° 0.1 mm 2 mps 752 mmHg 60%
    18:00 +29°C° 0 mm 2 mps 752 mmHg 68%
    19:00 +27°C° 0 mm 2 mps 753 mmHg 77%
    20:00 +26°C° 0 mm 1 mps 753 mmHg 85%
    21:00 +25°C° 0 mm 1 mps 754 mmHg 89%
    22:00 +24°C° 0 mm 1 mps 754 mmHg 94%
    23:00 +23°C° 0 mm 1 mps 755 mmHg 98%

    23 January, Wednesday

    Time Temperature Precipitation Wind Pressure Humidity
    00:00 +21°C° 0 mm 0 mps 754 mmHg 98%
    01:00 +21°C° 0 mm 0 mps 754 mmHg 99%
    02:00 +21°C° 0 mm 0 mps 754 mmHg 99%
    03:00 +21°C° 0 mm 0 mps 754 mmHg 99%
    04:00 +21°C° 0 mm 0 mps 754 mmHg 99%
    05:00 +21°C° 0 mm 0 mps 754 mmHg 99%
    06:00 +22°C° 0 mm 0 mps 754 mmHg 94%
    07:00 +23°C° 0 mm 0 mps 755 mmHg 89%
    08:00 +27°C° 0 mm 1 mps 755 mmHg 85%
    09:00 +28°C° 0.1 mm 1 mps 755 mmHg 76%
    10:00 +30°C° 0.1 mm 1 mps 755 mmHg 67%
    11:00 +32°C° 0.1 mm 2 mps 755 mmHg 58%
    12:00 +32°C° 0.3 mm 2 mps 754 mmHg 59%
    13:00 +32°C° 0.3 mm 2 mps 753 mmHg 59%
    14:00 +32°C° 0.3 mm 2 mps 753 mmHg 60%
    15:00 +30°C° 0.6 mm 2 mps 752 mmHg 67%
    16:00 +29°C° 0.6 mm 2 mps 752 mmHg 75%
    17:00 +27°C° 0.6 mm 2 mps 752 mmHg 83%
    18:00 +27°C° 0.1 mm 2 mps 752 mmHg 86%
    19:00 +26°C° 0.1 mm 1 mps 753 mmHg 89%
    20:00 +25°C° 0.1 mm 1 mps 753 mmHg 92%
    21:00 +24°C° 0 mm 1 mps 754 mmHg 94%
    22:00 +24°C° 0 mm 1 mps 754 mmHg 96%
    23:00 +24°C° 0 mm 1 mps 754 mmHg 98%
    Show more